www.pogodaiklimat.ru

Погода и климат >> Архив погоды >> Казахстан >> Алматы


АРХИВ ПОГОДЫ в Алматы

Время (UTC), дата Ветер
(напр.,м/с)
 
Видим.   Явления Облачность Т
(С)
Тd
(С)
f
(%)
Тe
(С)
Тes
(С)
Комфортность P
(гПа)
Po
(гПа)
Тmin
(С)
Tmax
(С)
R
(мм)
R24
(мм)
S
(см)
06 22.04 ЮВ 2 4000 м слабый ливневой дождь 10/10 600 м
[Cb cap]
+10.1 +8.5 90 +9 +9 холодно 1022.4 924.4 +9.3 21
09 22.04 штиль 0 10 км {ливн. осадки} 10/10 600 м
[Cb cap]
+14.3 +5.3 55 +14 +14 прохладно 1019.6 923.2
12 22.04 штиль 0 10 км 10/8 600 м
[Cb cap Ac trans Ci sp]
+16.1 +5.5 49 +16 +16 по сезону 1018.4 922.7
15 22.04 штиль 0 н/о 10/10 600 м
[Cb cap]
+14.1 +6.0 58 +14 +14 по сезону 1021.0 924.4 +17.0
18 22.04 штиль 0 н/о 9/6 600 м
[Cb cap Ac und]
+12.5 +6.9 69 +12 +12 по сезону 1022.8 925.5 +17.0 3
21 22.04 штиль 0 н/о 10/3 600 м
[Cb cap Ac trans Ci fib]
+12.2 +7.7 74 +12 +12 по сезону 1022.9 925.6
00 23.04 штиль 0
{4}
10 км 10/3 1000 м
[Cu med, cong Ac lent Ci sp]
+11.1 +6.6 74 +11 +11 по сезону 1023.8 925.9
03 23.04 штиль 0 20 км 3/0
[Ci fib]
+16.3 +7.2 55 +16 +24 тепло 1021.5 925.5
06 23.04 СВ 1 10 км 8/6 600 м
[Cb cap Ci sp]
+18.4 +7.8 50 +20 +27 тепло 1020.9 925.7 +10.5
09 23.04 С 2 10 км 6/4 600 м
[Cb cap Ci sp]
+20.1 +8.7 48 +22 +29 комфорт 1019.2 924.7
12 23.04 штиль 0 10 км 8/4 600 м
[Cb cap Ci sp]
+18.2 +8.5 53 +18 +20 по сезону 1020.4 925.2
15 23.04 штиль 0 н/о 8/0
[Ci fib]
+15.8 +7.3 57 +16 +16 по сезону 1022.2 926.1 +20.9
18 23.04 В 1 н/о 4/0
[Ci fib]
+14.6 +6.4 58 +15 +15 тепло 1021.6 925.1 +20.9
21 23.04 штиль 0 н/о 3/0
[Ci sp]
+12.2 +4.1 58 +12 +12 по сезону 1021.4 924.1
00 24.04 З 1
{3}
20 км ясно +9.4 +3.7 68 +9 +9 по сезону 1023.7 925.2
03 24.04 С 1 20 км ясно +18.4 +3.1 36 +20 +27 тепло 1019.3 924.1
06 24.04 СЗ 1 10 км ясно +20.2 +5.8 39 +22 +41 комфорт 1018.8 924.3 +9.2
09 24.04 СВ 1 10 км 1/1 1000 м
[Cu med, cong]
+21.4 +5.0 34 +22 +36 комфорт 1018.0 923.9
12 24.04 С 1 10 км 1/1 1000 м
[Cu med, cong]
+21.0 +5.4 36 +23 +25 комфорт 1017.2 923.0
15 24.04 Ю 1 н/о ясно +16.4 +8.0 58 +17 +17 тепло 1019.4 923.7 +22.5
18 24.04 штиль 0 н/о ясно +14.4 +4.9 53 +14 +14 тепло 1019.6 923.2 +22.5
21 24.04 штиль 0 н/о ясно +11.7 +1.8 51 +12 +12 по сезону 1019.6 922.3
00 25.04 штиль 0
{5}
20 км ясно +10.2 -0.7 47 +10 +10 по сезону 1019.4 921.5
03 25.04 штиль 0 20 км ясно +18.6 +1.9 33 +19 +28 тепло 1016.2 921.3
06 25.04 штиль 0 20 км ясно +22.3 +4.5 31 +22 +45 комфорт 1014.3 920.8 +10.0
09 25.04 штиль 0 20 км ясно +24.9 +6.8 31 +25 +43 комфорт 1012.2 919.7
12 25.04 С 1 20 км ясно +24.0 +4.4 28 +24 +26 комфорт 1011.7 918.9
15 25.04 штиль 0 н/о ясно +19.6 +7.8 46 +20 +20 тепло 1013.7 919.5 +26.0
18 25.04 штиль 0 н/о ясно +17.8 +4.8 42 +18 +18 тепло 1014.1 919.3 +26.0
21 25.04 штиль 0 н/о ясно +14.7 +4.4 50 +15 +15 тепло 1014.5 918.6
00 26.04 штиль 0
{4}
20 км ясно +13.6 +2.2 46 +14 +14 тепло 1014.5 918.3
03 26.04 штиль 0 20 км ясно +21.9 +6.1 36 +23 +32 комфорт 1012.0 918.6
06 26.04 ЮЗ 1 10 км ясно +25.2 +6.5 30 +25 +44 комфорт 1010.8 918.5 +12.8
09 26.04 штиль 0 10 км ясно +26.6 +7.9 31 +27 +44 жарко 1010.3 918.5
12 26.04 штиль 0 10 км ясно +24.0 +8.0 36 +24 +28 комфорт 1011.5 918.9
15 26.04 штиль 0 н/о ясно +18.1 +8.4 53 +18 +18 тепло 1014.7 920.0 +27.7
18 26.04 штиль 0 н/о ясно +15.8 +6.3 53 +16 +16 тепло 1015.3 919.7 +27.7
21 26.04 штиль 0 н/о ясно +17.3 +1.0 33 +17 +17 тепло 1015.0 919.9
00 27.04 штиль 0
{3}
10 км ясно +15.2 +1.0 38 +15 +15 тепло 1016.1 920.2
03 27.04 штиль 0 10 км 9/6 1000 м
[Cu med, cong Ci sp]
+24.2 +8.0 36 +25 +28 комфорт 1013.8 921.0
06 27.04 штиль 0 10 км 6/6 1000 м
[Cu med, cong]
+25.2 +11.1 41 +26 +35 жарко 1014.0 921.5 +14.0
09 27.04 штиль 0 10 км 10/6 600 м
[Cb cap Ac trans Ci sp]
+23.9 +11.1 45 +25 +29 комфорт 1014.1 921.3
12 27.04 штиль 0 10 км 9/5 600 м
[Cb cap Ac trans Ci sp]
+22.1 +9.8 46 +24 +25 комфорт 1015.0 921.5
15 27.04 ЮВ 1 н/о ливневой дождь, в посл. час гроза 10/10 600 м
[Cb cap]
+13.0 +11.7 92 +13 +13 прохладно 1022.4 925.4 +27.1
18 27.04 ЮЗ 1 н/о ливневой дождь {гроза} 10/10 600 м
[Cb cap]
+12.6 +11.5 93 +13 +13 по сезону 1024.1 926.8 +27.1 12
21 27.04 З 1 н/о {ливн. осадки} 10/10 600 м
[Cb cap]
+11.2 +10.1 93 +11 +11 по сезону 1024.4 926.6
00 28.04 ЮЗ 1
{5}
4000 м слабый ливневой дождь 10/10 600 м
[Cb cap]
+9.6 +8.4 92 +9 +9 по сезону 1024.6 926.3
03 28.04 штиль 0 4000 м ливневой дождь 10/10 600 м
[Cb cap]
+8.2 +7.4 95 +7 +7 холодно 1025.7 926.8
06 28.04 штиль 0 4000 м слабый ливневой дождь 10/10 600 м
[Cb cap]
+7.0 +6.4 96 +6 +6 очень
холодно
1027.1 927.6 +8.0 22
09 28.04 штиль 0 4000 м слабый ливневой дождь 10/10 600 м
[Cb cap]
+7.0 +6.2 95 +6 +6 очень
холодно
1027.8 928.2
12 28.04 штиль 0 4000 м ливневой дождь 10/10 600 м
[Cb cap]
+4.8 +3.2 89 +4 +4 очень
холодно
1030.8 930.1
15 28.04 штиль 0 н/о слабый ливневой дождь 10/10 600 м
[Cb cap]
+5.2 +3.3 88 +4 +4 очень
холодно
1032.8 932.1 +8.2
18 28.04 штиль 0 н/о слабый ливневой дождь 10/10 600 м
[Cb cap]
+5.2 +4.1 93 +4 +4 очень
холодно
1032.7 932.0 +8.2 15
21 28.04 штиль 0 н/о {ливн. осадки} 10/10 600 м
[Cb cap]
+5.3 +3.0 85 +4 +4 холодно 1031.7 931.1
00 29.04 штиль 0
{5}
10 км {ливн. осадки} 10/10 600 м
[Cb cap]
+5.2 +3.8 91 +4 +4 холодно 1031.7 931.1
03 29.04 штиль 0 10 км 10/6 600 м
[Cb cap Ac As]
+6.3 +1.2 70 +6 +7 очень
холодно
1030.5 930.3

 

Местоположение метеостанции Алматы (Алматинская область, Казахстан): широта 43.23 долгота 76.93 высота над уровнем моря 851 м.

В архиве по умолчанию представлена погода в Алматы за последнюю неделю. Архивные данные за месяц целиком и за предыдущие месяцы, начиная с января 2011 года, Вы можете получить, выбрав интересующий диапазон дат из раскрывающегося списка и нажав кнопку "Ввод!".

Внимание! Время в таблицах - всемирное. Для получения местного времени необходимо прибавить поправку, которая в Алматы равна 6 ч.

Смотрите также архив погоды в соседних городах и на ближайших метеорологических станциях:

Погода в Алматы АМС (Алматинская область, Казахстан) (4 км)
Погода в Каменском плато (Алматинская область, Казахстан) (6 км)
Погода в Медеу (Алматинская область, Казахстан) (12 км)
Погода в Карасайском (Алматинская область, Казахстан) (15 км)
Погода в Шымбулаке (Алматинская область, Казахстан) (16 км)
Погода в Большом Алматинском озере (Алматинская область, Казахстан) (18 км)
Погода в Альмереке (Алматинская область, Казахстан) (21 км)
Погода в Коныролене (Алматинская область, Казахстан) (24 км)
Погода в Рыскулово (Алматинская область, Казахстан) (30 км)
Погода в Илийском (Алматинская область, Казахстан) (33 км)

Пояснения к столбцам:

Ветер - указаны скорость ветра в м/с - средняя за 10 мин, порывы в срок и между сроками (в фигурных скобках) и направление, откуда дует ветер: С - северный, СВ - северо-восточный, В - восточный, ЮВ - юго-восточный, Ю - южный, ЮЗ - юго-западный, З - западный, СЗ - северо-западный.
Видимость - горизонтальная дальность видимости в метрах или километрах. При видимости от 1 до 10 км при отсутствии осадков обычно наблюдается дымка, при ухудшении видимости до 1 км и менее - туман. В сухую погоду видимость может ухудшаться дымом, пылью или мглою.
Явления - указаны атмосферные явления, наблюдавшиеся в срок или в последний час перед сроком; фигурными скобками обозначены явления, наблюдавшиеся между сроками (за 1-3 часа до срока); квадратными скобками обозначены град или гололедные отложения с указанием их диаметра в мм.
Облачность - указаны через наклонную черту общая и нижняя облачность в баллах и высота нижней границы облаков в метрах; квадратными скобками обозначены формы облаков: Ci - перистые, Cs - перисто-слоистые, Cc - перисто-кучевые, Ac - высококучевые, As - высокослоистые, Sc - слоисто-кучевые, Ns - слоисто-дождевые, Cu - кучевые, Cb - кучево-дождевые. Подробнее классификацию облаков см. в Атласе облаков (PDF).
T - Температура воздуха - температура, измеренная на высоте 2 м над землей.
Td - Температура точки росы - температура, при понижении до которой содержащийся в воздухе водяной пар достигнет насыщения.
f - Относительная влажность воздуха - влажноcть воздуха, измеренная на высоте 2 м над землей.
Te - Эффективная температура - температура, которую ощущает одетый по сезону человек в тени. Характеристика душности погоды. При расчете учитывается влияние влажности воздуха и скорости ветра на теплоощущения человека.
Tes - Эффективная температура на солнце - температура, которую ощущает человек, с поправкой на солнечный нагрев. Характеристика знойности погоды. Зависит от высоты солнца над горизонтом, облачности и скорости ветра. Ночью, в пасмурную погоду, а также при ветре 12 м/с и более поправка равна нулю.
P - Атмосферное давление - приведенное к уровню моря атмосферное давление.
Po - Атмосферное давление - измеренное на уровне метеостанции атмосферное давление.
Tmin - Минимальная температура - минимум температуры воздуха на высоте 2 м над землей.
Tmax - Максимальная температура - максимум температуры воздуха на высоте 2 м над землей.
R - Количество осадков - Количество выпавших осадков за период времени, мм. При наведении курсора мыши на число - период времени, за который выпало указанное количество осадков.
R24 - Количество осадков - Количество выпавших осадков за 24 часа, мм.
S - Снежный покров - Высота снежного покрова, см. При наведении курсора мыши на число - состояние снежного покрова и степень покрытия местности в баллах.